Location: Poughquag
(41.6090°N, 73.6820°W)
Time: 07:10:50
(UTC-04:00)

CUBESAT XI-V - Pass Details

Date: 26 July 2025
Orbit: 643 x 664 km, 98.3° (Epoch: 19 April)

Event Time Altitude Azimuth Distance (km) Brightness Sun altitude
Exits shadow 02:03:01 - 105° (ESE) 2,568 ? -27.4°
Reaches altitude 10° 02:05:08 10° 85° (E) 2,081 ? -27.3°
Maximum altitude 02:06:58 12° 61° (ENE) 1,925 ? -27.2°
Drops below altitude 10° 02:08:48 10° 37° (NE) 2,081 ? -27.1°
Sets 02:12:17 0° 8° (N) 2,992 ? -26.9°
